Location: Boiro
(42.6475°N, 8.8834°W)
Time: 05:54:31
(UTC+01:00)

Vanguard 1 - Pass Details

Date: 01 December 2021
Orbit: 652 x 3830 km, 34.2° (Epoch: 21 January)

Event Time Altitude Azimuth Distance (km) Brightness Sun altitude
Rises 02:43:31 0° 241° (WSW) 7,624 - -63.4°
Reaches altitude 10° 02:48:31 10° 238° (WSW) 6,786 - -62.8°
Maximum altitude 03:11:24 61° 166° (SSE) 3,907 - -59.5°
Exits shadow 03:17:35 49° 118° (ESE) 3,969 12.9 -58.6°
Drops below altitude 10° 03:29:01 10° 92° (E) 5,423 14.1 -56.8°
Sets 03:32:28 0° 89° (E) 6,091 14.6 -56.2°
